sat.trackr.live / text

‹ back to catalog

STARLINK-36426

NORAD 67560 · 2026-014AA

PAYLOAD ACTIVE UNKNOWN

§ Identity

Operator
Country
US
Launch date
2026-01-22
Launch site
AFWTR
Launch vehicle
Mass (kg)
RCS (m²)

Purposes: comms

External: N2YO · Heavens-Above · Gunter

§ Orbital elements

Epoch: 2026-05-25T02:59:50.513280Z

Period
93.91 min
Inclination
97.2873°
Eccentricity
0.0001641
Mean motion
15.33460997 rev/d
Perigee alt
464.4 km
Apogee alt
466.6 km
Semi-major
6,843.6 km
B*
4.5356e-4
RAAN
32.2684°
Arg perigee
93.3993°
Mean anomaly
266.7437°
Rev number
2,049

§ Raw data

STARLINK-364261 67560U 26014AA  26145.12489020  .00014604  00000+0  45356-3 0  99912 67560  97.2873  32.2684 0001641  93.3993 266.7437 15.33460997 20492

JSON: /api/v1/satellites/67560 · /tle

For live sub-satellite position, see the globe view (requires WebGL).

§ Visibility from observer

Set your observer location to see the next 7 days of passes ≥ 10°. The values pass through the URL so the page stays shareable.

No JS? Fill the form by hand. The geolocation button needs JavaScript.